Year,Month,Day,Hour,Minute,Value (Times are PST for temperature in C)
2016,04,02,00,01,9.70
2016,04,02,00,02,9.70
2016,04,02,00,03,9.60
2016,04,02,00,04,9.60
2016,04,02,00,06,9.60
2016,04,02,00,07,9.50
2016,04,02,00,09,9.50
2016,04,02,00,11,9.40
2016,04,02,00,12,9.40
2016,04,02,00,13,9.30
2016,04,02,00,14,9.30
2016,04,02,00,16,9.30
2016,04,02,00,17,9.20
2016,04,02,00,18,9.20
2016,04,02,00,19,9.20
2016,04,02,00,21,9.20
2016,04,02,00,22,9.20
2016,04,02,00,23,9.20
2016,04,02,00,24,9.20
2016,04,02,00,26,9.20
2016,04,02,00,27,9.20
2016,04,02,00,28,9.20
2016,04,02,00,29,9.20
2016,04,02,00,30,9.20
2016,04,02,00,31,9.20
2016,04,02,00,32,9.20
2016,04,02,00,33,9.20
2016,04,02,00,34,9.20
2016,04,02,00,36,9.20
2016,04,02,00,37,9.20
2016,04,02,00,38,9.20
2016,04,02,00,39,9.20
2016,04,02,00,40,9.20
2016,04,02,00,41,9.20
2016,04,02,00,42,9.20
2016,04,02,00,43,9.20
2016,04,02,00,44,9.20
2016,04,02,00,45,9.20
2016,04,02,00,46,9.20
2016,04,02,00,47,9.20
2016,04,02,00,48,9.20
2016,04,02,00,49,9.20
2016,04,02,00,50,9.20
2016,04,02,00,51,9.20
2016,04,02,00,52,9.20
2016,04,02,00,53,9.30
2016,04,02,00,54,9.30
2016,04,02,00,55,9.30
2016,04,02,00,56,9.30
2016,04,02,00,57,9.40
2016,04,02,00,58,9.40
2016,04,02,00,59,9.40
2016,04,02,01,00,9.50
2016,04,02,01,01,9.50
2016,04,02,01,02,9.60
2016,04,02,01,03,9.60
2016,04,02,01,04,9.60
2016,04,02,01,05,9.60
2016,04,02,01,06,9.70
2016,04,02,01,07,9.70
2016,04,02,01,08,9.70
2016,04,02,01,09,9.70
2016,04,02,01,10,9.70
2016,04,02,01,11,9.70
2016,04,02,01,12,9.70
2016,04,02,01,13,9.70
2016,04,02,01,14,9.70
2016,04,02,01,15,9.80
2016,04,02,01,16,9.80
2016,04,02,01,17,9.80
2016,04,02,01,18,9.80
2016,04,02,01,19,9.80
2016,04,02,01,20,9.80
2016,04,02,01,21,9.80
2016,04,02,01,22,9.80
2016,04,02,01,23,9.80
2016,04,02,01,24,9.80
2016,04,02,01,25,9.80
2016,04,02,01,26,9.90
2016,04,02,01,27,9.90
2016,04,02,01,28,9.90
2016,04,02,01,29,9.90
2016,04,02,01,30,9.90
2016,04,02,01,31,9.90
2016,04,02,01,32,9.90
2016,04,02,01,33,9.90
2016,04,02,01,34,9.90
2016,04,02,01,35,9.90
2016,04,02,01,36,9.90
2016,04,02,01,37,9.90
2016,04,02,01,38,9.80
2016,04,02,01,39,9.80
2016,04,02,01,40,9.80
2016,04,02,01,41,9.80
2016,04,02,01,42,9.80
2016,04,02,01,43,9.80
2016,04,02,01,44,9.80
2016,04,02,01,45,9.80
2016,04,02,01,46,9.80
2016,04,02,01,47,9.80
2016,04,02,01,48,9.70
2016,04,02,01,49,9.70
2016,04,02,01,50,9.70
2016,04,02,01,51,9.70
2016,04,02,01,52,9.70
2016,04,02,01,53,9.70
2016,04,02,01,54,9.70
2016,04,02,01,55,9.70
2016,04,02,01,56,9.70
2016,04,02,01,57,9.70
2016,04,02,01,58,9.70
2016,04,02,01,59,9.60
2016,04,02,02,00,9.60
2016,04,02,02,01,9.60
2016,04,02,02,02,9.60
2016,04,02,02,03,9.50
2016,04,02,02,04,9.50
2016,04,02,02,06,9.50
2016,04,02,02,07,9.50
2016,04,02,02,08,9.40
2016,04,02,02,09,9.40
2016,04,02,02,11,9.40
2016,04,02,02,12,9.40
2016,04,02,02,13,9.40
2016,04,02,02,14,9.40
2016,04,02,02,16,9.30
2016,04,02,02,17,9.30
2016,04,02,02,18,9.30
2016,04,02,02,19,9.30
2016,04,02,02,21,9.30
2016,04,02,02,22,9.30
2016,04,02,02,23,9.30
2016,04,02,02,24,9.30
2016,04,02,02,26,9.30
2016,04,02,02,27,9.20
2016,04,02,02,28,9.20
2016,04,02,02,29,9.20
2016,04,02,02,31,9.20
2016,04,02,02,32,9.20
2016,04,02,02,33,9.20
2016,04,02,02,34,9.20
2016,04,02,02,36,9.20
2016,04,02,02,37,9.20
2016,04,02,02,38,9.20
2016,04,02,02,39,9.20
2016,04,02,02,41,9.20
2016,04,02,02,42,9.20
2016,04,02,02,43,9.20
2016,04,02,02,44,9.20
2016,04,02,02,46,9.20
2016,04,02,02,47,9.20
2016,04,02,02,48,9.20
2016,04,02,02,49,9.20
2016,04,02,02,51,9.20
2016,04,02,02,52,9.20
2016,04,02,02,53,9.20
2016,04,02,02,54,9.20
2016,04,02,02,56,9.20
2016,04,02,02,57,9.10
2016,04,02,02,58,9.10
2016,04,02,02,59,9.10
2016,04,02,03,01,9.10
2016,04,02,03,02,9.10
2016,04,02,03,03,9.00
2016,04,02,03,04,9.00
2016,04,02,03,06,9.00
2016,04,02,03,07,9.00
2016,04,02,03,08,9.00
2016,04,02,03,09,9.00
2016,04,02,03,11,8.90
2016,04,02,03,12,8.90
2016,04,02,03,13,8.90
2016,04,02,03,14,8.90
2016,04,02,03,15,8.90
2016,04,02,03,16,8.90
2016,04,02,03,17,8.90
2016,04,02,03,18,8.90
2016,04,02,03,19,8.80
2016,04,02,03,20,8.80
2016,04,02,03,21,8.80
2016,04,02,03,22,8.80
2016,04,02,03,23,8.80
2016,04,02,03,24,8.80
2016,04,02,03,25,8.70
2016,04,02,03,26,8.70
2016,04,02,03,27,8.70
2016,04,02,03,28,8.70
2016,04,02,03,29,8.70
2016,04,02,03,30,8.70
2016,04,02,03,31,8.70
2016,04,02,03,32,8.70
2016,04,02,03,33,8.70
2016,04,02,03,34,8.70
2016,04,02,03,35,8.70
2016,04,02,03,36,8.70
2016,04,02,03,37,8.70
2016,04,02,03,38,8.70
2016,04,02,03,39,8.70
2016,04,02,03,40,8.70
2016,04,02,03,41,8.70
2016,04,02,03,42,8.70
2016,04,02,03,43,8.70
2016,04,02,03,44,8.70
2016,04,02,03,45,8.70
2016,04,02,03,46,8.70
2016,04,02,03,47,8.70
2016,04,02,03,48,8.70
2016,04,02,03,49,8.70
2016,04,02,03,50,8.70
2016,04,02,03,51,8.70
2016,04,02,03,52,8.70
2016,04,02,03,53,8.70
2016,04,02,03,54,8.70
2016,04,02,03,55,8.70
2016,04,02,03,56,8.70
2016,04,02,03,57,8.70
2016,04,02,03,58,8.70
2016,04,02,03,59,8.70
2016,04,02,04,00,8.70
2016,04,02,04,01,8.70
2016,04,02,04,02,8.70
2016,04,02,04,03,8.70
2016,04,02,04,04,8.70
2016,04,02,04,05,8.70
2016,04,02,04,06,8.70
2016,04,02,04,07,8.70
2016,04,02,04,08,8.70
2016,04,02,04,09,8.70
2016,04,02,04,10,8.70
2016,04,02,04,11,8.70
2016,04,02,04,12,8.70
2016,04,02,04,13,8.70
2016,04,02,04,14,8.70
2016,04,02,04,15,8.70
2016,04,02,04,16,8.70
2016,04,02,04,17,8.70
2016,04,02,04,18,8.70
2016,04,02,04,19,8.70
2016,04,02,04,20,8.70
2016,04,02,04,21,8.70
2016,04,02,04,22,8.70
2016,04,02,04,23,8.70
2016,04,02,04,24,8.70
2016,04,02,04,25,8.70
2016,04,02,04,26,8.70
2016,04,02,04,27,8.70
2016,04,02,04,28,8.70
2016,04,02,04,29,8.70
2016,04,02,04,30,8.70
2016,04,02,04,31,8.70
2016,04,02,04,32,8.70
2016,04,02,04,33,8.70
2016,04,02,04,34,8.70
2016,04,02,04,35,8.70
2016,04,02,04,36,8.70
2016,04,02,04,37,8.70
2016,04,02,04,38,8.70
2016,04,02,04,39,8.70
2016,04,02,04,40,8.70
2016,04,02,04,41,8.70
2016,04,02,04,42,8.70
2016,04,02,04,43,8.70
2016,04,02,04,44,8.70
2016,04,02,04,45,8.70
2016,04,02,04,46,8.70
2016,04,02,04,47,8.70
2016,04,02,04,48,8.70
2016,04,02,04,49,8.70
2016,04,02,04,50,8.70
2016,04,02,04,51,8.70
2016,04,02,04,52,8.70
2016,04,02,04,53,8.70
2016,04,02,04,54,8.70
2016,04,02,04,55,8.70
2016,04,02,04,57,8.70
2016,04,02,04,58,8.70
2016,04,02,04,59,8.70
2016,04,02,05,01,8.70
2016,04,02,05,02,8.70
2016,04,02,05,03,8.70
2016,04,02,05,04,8.70
2016,04,02,05,06,8.70
2016,04,02,05,07,8.70
2016,04,02,05,08,8.70
2016,04,02,05,09,8.70
2016,04,02,05,11,8.70
2016,04,02,05,12,8.70
2016,04,02,05,13,8.70
2016,04,02,05,14,8.70
2016,04,02,05,16,8.70
2016,04,02,05,17,8.70
2016,04,02,05,18,8.70
2016,04,02,05,19,8.70
2016,04,02,05,21,8.70
2016,04,02,05,22,8.70
2016,04,02,05,23,8.70
2016,04,02,05,24,8.70
2016,04,02,05,26,8.70
2016,04,02,05,27,8.70
2016,04,02,05,28,8.70
2016,04,02,05,29,8.70
2016,04,02,05,31,8.70
2016,04,02,05,32,8.70
2016,04,02,05,33,8.70
2016,04,02,05,34,8.70
2016,04,02,05,36,8.70
2016,04,02,05,37,8.60
2016,04,02,05,38,8.60
2016,04,02,05,39,8.60
2016,04,02,05,41,8.50
2016,04,02,05,42,8.50
2016,04,02,05,43,8.50
2016,04,02,05,44,8.40
2016,04,02,05,46,8.30
2016,04,02,05,47,8.30
2016,04,02,05,48,8.30
2016,04,02,05,49,8.20
2016,04,02,05,51,8.20
2016,04,02,05,52,8.20
2016,04,02,05,53,8.20
2016,04,02,05,54,8.20
2016,04,02,05,56,8.10
2016,04,02,05,57,8.10
2016,04,02,05,58,8.00
2016,04,02,05,59,8.00
2016,04,02,06,01,8.00
2016,04,02,06,02,7.90
2016,04,02,06,03,7.90
2016,04,02,06,04,7.90
2016,04,02,06,06,7.90
2016,04,02,06,07,7.90
2016,04,02,06,08,7.90
2016,04,02,06,09,7.90
2016,04,02,06,11,7.90
2016,04,02,06,12,7.90
2016,04,02,06,13,7.90
2016,04,02,06,14,7.90
2016,04,02,06,15,7.90
2016,04,02,06,16,7.90
2016,04,02,06,17,7.90
2016,04,02,06,18,7.90
2016,04,02,06,19,7.90
2016,04,02,06,20,7.90
2016,04,02,06,21,7.90
2016,04,02,06,22,7.90
2016,04,02,06,23,7.90
2016,04,02,06,24,7.90
2016,04,02,06,25,7.90
2016,04,02,06,26,7.90
2016,04,02,06,27,7.90
2016,04,02,06,28,7.90
2016,04,02,06,29,7.90
2016,04,02,06,30,7.90
2016,04,02,06,31,7.90
2016,04,02,06,32,7.90
2016,04,02,06,33,7.80
2016,04,02,06,34,7.80
2016,04,02,06,35,7.80
2016,04,02,06,36,7.80
2016,04,02,06,37,7.80
2016,04,02,06,38,7.80
2016,04,02,06,39,7.80
2016,04,02,06,40,7.80
2016,04,02,06,41,7.80
2016,04,02,06,42,7.80
2016,04,02,06,43,7.80
2016,04,02,06,44,7.80
2016,04,02,06,45,7.80
2016,04,02,06,46,7.80
2016,04,02,06,47,7.80
2016,04,02,06,48,7.90
2016,04,02,06,49,7.90
2016,04,02,06,50,7.90
2016,04,02,06,51,7.90
2016,04,02,06,52,7.90
2016,04,02,06,53,7.90
2016,04,02,06,54,7.90
2016,04,02,06,55,7.90
2016,04,02,06,56,7.90
2016,04,02,06,57,7.90
2016,04,02,06,58,7.90
2016,04,02,06,59,7.90
2016,04,02,07,00,7.90
2016,04,02,07,01,7.90
2016,04,02,07,02,7.90
2016,04,02,07,03,7.90
2016,04,02,07,04,7.90
2016,04,02,07,05,7.90
2016,04,02,07,06,7.90
2016,04,02,07,07,8.00
2016,04,02,07,08,8.00
2016,04,02,07,09,8.00
2016,04,02,07,10,8.00
2016,04,02,07,11,8.00
2016,04,02,07,12,8.00
2016,04,02,07,13,8.00
2016,04,02,07,14,8.00
2016,04,02,07,15,8.10
2016,04,02,07,16,8.10
2016,04,02,07,17,8.10
2016,04,02,07,18,8.10
2016,04,02,07,19,8.10
2016,04,02,07,20,8.10
2016,04,02,07,21,8.10
2016,04,02,07,22,8.10
2016,04,02,07,23,8.10
2016,04,02,07,24,8.20
2016,04,02,07,25,8.20
2016,04,02,07,26,8.20
2016,04,02,07,27,8.20
2016,04,02,07,28,8.20
2016,04,02,07,29,8.20
2016,04,02,07,30,8.20
2016,04,02,07,31,8.20
2016,04,02,07,32,8.20
2016,04,02,07,33,8.20
2016,04,02,07,34,8.20
2016,04,02,07,35,8.20
2016,04,02,07,36,8.20
2016,04,02,07,37,8.20
2016,04,02,07,38,8.30
2016,04,02,07,39,8.30
2016,04,02,07,40,8.30
2016,04,02,07,41,8.30
2016,04,02,07,42,8.40
2016,04,02,07,43,8.40
2016,04,02,07,44,8.40
2016,04,02,07,45,8.40
2016,04,02,07,46,8.50
2016,04,02,07,47,8.50
2016,04,02,07,48,8.50
2016,04,02,07,49,8.60
2016,04,02,07,50,8.60
2016,04,02,07,52,8.70
2016,04,02,07,53,8.70
2016,04,02,07,54,8.80
2016,04,02,07,56,8.90
2016,04,02,07,57,9.00
2016,04,02,07,58,9.10
2016,04,02,07,59,9.20
2016,04,02,08,01,9.20
2016,04,02,08,02,9.20
2016,04,02,08,03,9.20
2016,04,02,08,04,9.30
2016,04,02,08,06,9.50
2016,04,02,08,07,9.60
2016,04,02,08,08,9.70
2016,04,02,08,09,9.70
2016,04,02,08,11,9.70
2016,04,02,08,12,9.80
2016,04,02,08,13,9.90
2016,04,02,08,14,9.90
2016,04,02,08,16,10.20
2016,04,02,08,17,10.30
2016,04,02,08,18,10.40
2016,04,02,08,19,10.60
2016,04,02,08,21,10.80
2016,04,02,08,22,10.90
2016,04,02,08,23,10.90
2016,04,02,08,24,11.10
2016,04,02,08,26,11.10
2016,04,02,08,27,11.20
2016,04,02,08,28,11.30
2016,04,02,08,29,11.30
2016,04,02,08,31,11.40
2016,04,02,08,32,11.30
2016,04,02,08,33,11.20
2016,04,02,08,34,11.10
2016,04,02,08,36,11.10
2016,04,02,08,37,10.90
2016,04,02,08,38,10.90
2016,04,02,08,39,10.90
2016,04,02,08,41,11.10
2016,04,02,08,42,11.10
2016,04,02,08,43,11.20
2016,04,02,08,44,11.40
2016,04,02,08,46,11.60
2016,04,02,08,47,11.80
2016,04,02,08,48,11.80
2016,04,02,08,49,12.00
2016,04,02,08,51,12.20
2016,04,02,08,52,12.30
2016,04,02,08,53,12.40
2016,04,02,08,54,12.40
2016,04,02,08,56,12.50
2016,04,02,08,57,12.50
2016,04,02,08,58,12.50
2016,04,02,08,59,12.60
2016,04,02,09,01,12.70
2016,04,02,09,02,12.70
2016,04,02,09,03,12.70
2016,04,02,09,04,12.70
2016,04,02,09,06,12.80
2016,04,02,09,07,12.80
2016,04,02,09,08,12.70
2016,04,02,09,09,12.60
2016,04,02,09,10,12.40
2016,04,02,09,11,12.30
2016,04,02,09,12,12.20
2016,04,02,09,13,12.10
2016,04,02,09,14,11.90
2016,04,02,09,15,11.80
2016,04,02,09,16,11.80
2016,04,02,09,17,11.70
2016,04,02,09,18,11.60
2016,04,02,09,19,11.60
2016,04,02,09,20,11.60
2016,04,02,09,21,11.60
2016,04,02,09,22,11.40
2016,04,02,09,23,11.40
2016,04,02,09,24,11.40
2016,04,02,09,25,11.30
2016,04,02,09,26,11.30
2016,04,02,09,27,11.30
2016,04,02,09,28,11.30
2016,04,02,09,29,11.30
2016,04,02,09,30,11.30
2016,04,02,09,31,11.40
2016,04,02,09,32,11.40
2016,04,02,09,33,11.40
2016,04,02,09,34,11.40
2016,04,02,09,35,11.60
2016,04,02,09,36,11.60
2016,04,02,09,37,11.60
2016,04,02,09,38,11.60
2016,04,02,09,39,11.60
2016,04,02,09,40,11.60
2016,04,02,09,41,11.60
2016,04,02,09,42,11.60
2016,04,02,09,43,11.60
2016,04,02,09,44,11.70
2016,04,02,09,45,11.70
2016,04,02,09,46,11.70
2016,04,02,09,47,11.70
2016,04,02,09,48,11.70
2016,04,02,09,49,11.60
2016,04,02,09,50,11.60
2016,04,02,09,51,11.60
2016,04,02,09,52,11.60
2016,04,02,09,53,11.60
2016,04,02,09,54,11.60
2016,04,02,09,55,11.60
2016,04,02,09,56,11.60
2016,04,02,09,57,11.60
2016,04,02,09,58,11.60
2016,04,02,09,59,11.60
2016,04,02,10,00,11.60
2016,04,02,10,01,11.60
2016,04,02,10,02,11.70
2016,04,02,10,03,11.70
2016,04,02,10,04,11.80
2016,04,02,10,05,11.80
2016,04,02,10,06,11.90
2016,04,02,10,07,12.00
2016,04,02,10,08,12.20
2016,04,02,10,09,12.30
2016,04,02,10,10,12.40
2016,04,02,10,11,12.50
2016,04,02,10,12,12.50
2016,04,02,10,13,12.60
2016,04,02,10,14,12.60
2016,04,02,10,15,12.70
2016,04,02,10,16,12.70
2016,04,02,10,17,12.70
2016,04,02,10,18,12.60
2016,04,02,10,19,12.60
2016,04,02,10,20,12.60
2016,04,02,10,21,12.70
2016,04,02,10,22,12.70
2016,04,02,10,23,12.70
2016,04,02,10,24,12.70
2016,04,02,10,25,12.70
2016,04,02,10,26,12.70
2016,04,02,10,27,12.70
2016,04,02,10,28,12.80
2016,04,02,10,29,12.80
2016,04,02,10,30,12.80
2016,04,02,10,31,12.80
2016,04,02,10,32,12.80
2016,04,02,10,33,12.80
2016,04,02,10,34,12.80
2016,04,02,10,35,12.80
2016,04,02,10,36,12.80
2016,04,02,10,37,12.80
2016,04,02,10,38,12.80
2016,04,02,10,39,12.70
2016,04,02,10,40,12.70
2016,04,02,10,41,12.80
2016,04,02,10,42,12.80
2016,04,02,10,43,12.80
2016,04,02,10,44,12.80
2016,04,02,10,46,13.00
2016,04,02,10,47,13.00
2016,04,02,10,48,13.10
2016,04,02,10,49,13.10
2016,04,02,10,51,13.20
2016,04,02,10,52,13.20
2016,04,02,10,53,13.20
2016,04,02,10,54,13.30
2016,04,02,10,56,13.40
2016,04,02,10,57,13.50
2016,04,02,10,58,13.60
2016,04,02,10,59,13.70
2016,04,02,11,01,13.80
2016,04,02,11,02,14.00
2016,04,02,11,03,14.10
2016,04,02,11,04,14.10
2016,04,02,11,06,14.20
2016,04,02,11,07,14.20
2016,04,02,11,08,14.20
2016,04,02,11,09,14.30
2016,04,02,11,11,14.30
2016,04,02,11,12,14.40
2016,04,02,11,13,14.40
2016,04,02,11,14,14.40
2016,04,02,11,16,14.40
2016,04,02,11,17,14.40
2016,04,02,11,18,14.40
2016,04,02,11,19,14.40
2016,04,02,11,21,14.40
2016,04,02,11,22,14.40
2016,04,02,11,23,14.40
2016,04,02,11,24,14.40
2016,04,02,11,26,14.40
2016,04,02,11,27,14.40
2016,04,02,11,28,14.40
2016,04,02,11,29,14.30
2016,04,02,11,31,14.20
2016,04,02,11,32,14.20
2016,04,02,11,33,14.20
2016,04,02,11,34,14.20
2016,04,02,11,36,14.20
2016,04,02,11,37,14.20
2016,04,02,11,38,14.20
2016,04,02,11,39,14.20
2016,04,02,11,41,14.20
2016,04,02,11,42,14.20
2016,04,02,11,43,14.20
2016,04,02,11,44,14.20
2016,04,02,11,46,14.20
2016,04,02,11,47,14.20
2016,04,02,11,48,14.20
2016,04,02,11,49,14.20
2016,04,02,11,51,14.20
2016,04,02,11,52,14.10
2016,04,02,11,53,14.10
2016,04,02,11,54,14.10
2016,04,02,11,55,14.10
2016,04,02,11,56,14.10
2016,04,02,11,57,14.10
2016,04,02,11,58,14.10
2016,04,02,11,59,14.10
2016,04,02,12,01,14.20
2016,04,02,12,02,14.10
2016,04,02,12,03,14.10
2016,04,02,12,04,14.10
2016,04,02,12,06,14.10
2016,04,02,12,07,14.10
2016,04,02,12,08,14.10
2016,04,02,12,09,14.10
2016,04,02,12,10,14.10
2016,04,02,12,11,14.10
2016,04,02,12,12,14.10
2016,04,02,12,13,14.00
2016,04,02,12,14,14.00
2016,04,02,12,15,13.90
2016,04,02,12,16,13.90
2016,04,02,12,17,13.90
2016,04,02,12,18,13.90
2016,04,02,12,19,13.90
2016,04,02,12,20,13.90
2016,04,02,12,21,13.90
2016,04,02,12,22,13.80
2016,04,02,12,23,13.80
2016,04,02,12,24,13.90
2016,04,02,12,25,13.90
2016,04,02,12,26,13.90
2016,04,02,12,27,14.00
2016,04,02,12,28,14.00
2016,04,02,12,29,14.00
2016,04,02,12,30,14.00
2016,04,02,12,31,14.00
2016,04,02,12,32,14.10
2016,04,02,12,33,14.10
2016,04,02,12,34,14.10
2016,04,02,12,35,14.10
2016,04,02,12,36,14.10
2016,04,02,12,37,14.10
2016,04,02,12,38,14.10
2016,04,02,12,39,14.10
2016,04,02,12,40,14.00
2016,04,02,12,41,14.00
2016,04,02,12,42,13.90
2016,04,02,12,43,13.90
2016,04,02,12,44,13.80
2016,04,02,12,45,13.80
2016,04,02,12,46,13.80
2016,04,02,12,47,13.80
2016,04,02,12,48,13.70
2016,04,02,12,49,13.70
2016,04,02,12,50,13.70
2016,04,02,12,51,13.70
2016,04,02,12,52,13.70
2016,04,02,12,53,13.70
2016,04,02,12,54,13.70
2016,04,02,12,55,13.70
2016,04,02,12,56,13.60
2016,04,02,12,57,13.60
2016,04,02,12,58,13.60
2016,04,02,12,59,13.60
2016,04,02,13,00,13.50
2016,04,02,13,01,13.50
2016,04,02,13,02,13.50
2016,04,02,13,03,13.50
2016,04,02,13,04,13.50
2016,04,02,13,05,13.50
2016,04,02,13,06,13.50
2016,04,02,13,07,13.50
2016,04,02,13,08,13.50
2016,04,02,13,09,13.50
2016,04,02,13,10,13.50
2016,04,02,13,11,13.50
2016,04,02,13,12,13.50
2016,04,02,13,13,13.50
2016,04,02,13,14,13.40
2016,04,02,13,15,13.40
2016,04,02,13,16,13.50
2016,04,02,13,17,13.50
2016,04,02,13,18,13.50
2016,04,02,13,19,13.60
2016,04,02,13,20,13.60
2016,04,02,13,21,13.60
2016,04,02,13,22,13.70
2016,04,02,13,23,13.70
2016,04,02,13,24,13.70
2016,04,02,13,25,13.70
2016,04,02,13,26,13.70
2016,04,02,13,27,13.80
2016,04,02,13,28,13.80
2016,04,02,13,29,13.90
2016,04,02,13,30,13.90
2016,04,02,13,31,14.00
2016,04,02,13,32,14.00
2016,04,02,13,33,14.00
2016,04,02,13,34,14.10
2016,04,02,13,35,14.10
2016,04,02,13,37,14.10
2016,04,02,13,38,14.10
2016,04,02,13,39,14.10
2016,04,02,13,41,14.10
2016,04,02,13,42,14.10
2016,04,02,13,43,14.10
2016,04,02,13,44,14.10
2016,04,02,13,46,14.10
2016,04,02,13,47,14.10
2016,04,02,13,48,14.10
2016,04,02,13,49,14.10
2016,04,02,13,51,14.10
2016,04,02,13,52,14.20
2016,04,02,13,53,14.20
2016,04,02,13,54,14.20
2016,04,02,13,56,14.30
2016,04,02,13,57,14.30
2016,04,02,13,58,14.30
2016,04,02,13,59,14.40
2016,04,02,14,01,14.20
2016,04,02,14,02,14.20
2016,04,02,14,03,14.20
2016,04,02,14,04,14.20
2016,04,02,14,06,14.20
2016,04,02,14,07,14.20
2016,04,02,14,08,14.20
2016,04,02,14,09,14.20
2016,04,02,14,11,14.20
2016,04,02,14,12,14.20
2016,04,02,14,13,14.10
2016,04,02,14,14,14.00
2016,04,02,14,16,13.90
2016,04,02,14,17,13.80
2016,04,02,14,18,13.80
2016,04,02,14,19,13.80
2016,04,02,14,21,13.70
2016,04,02,14,22,13.70
2016,04,02,14,23,13.70
2016,04,02,14,24,13.70
2016,04,02,14,26,13.70
2016,04,02,14,27,13.70
2016,04,02,14,28,13.80
2016,04,02,14,29,13.80
2016,04,02,14,31,13.70
2016,04,02,14,32,13.70
2016,04,02,14,33,13.70
2016,04,02,14,34,13.70
2016,04,02,14,36,13.70
2016,04,02,14,37,13.70
2016,04,02,14,38,13.60
2016,04,02,14,39,13.60
2016,04,02,14,41,13.60
2016,04,02,14,42,13.50
2016,04,02,14,43,13.50
2016,04,02,14,44,13.40
2016,04,02,14,46,13.30
2016,04,02,14,47,13.30
2016,04,02,14,48,13.30
2016,04,02,14,49,13.20
2016,04,02,14,51,13.10
2016,04,02,14,52,13.10
2016,04,02,14,53,13.10
2016,04,02,14,54,13.10
2016,04,02,14,55,13.10
2016,04,02,14,56,13.10
2016,04,02,14,57,13.00
2016,04,02,14,58,13.00
2016,04,02,14,59,13.00
2016,04,02,15,00,13.00
2016,04,02,15,01,13.00
2016,04,02,15,02,13.00
2016,04,02,15,03,13.00
2016,04,02,15,04,13.10
2016,04,02,15,06,13.10
2016,04,02,15,07,13.20
2016,04,02,15,08,13.20
2016,04,02,15,09,13.10
2016,04,02,15,10,13.10
2016,04,02,15,11,13.20
2016,04,02,15,12,13.20
2016,04,02,15,13,13.20
2016,04,02,15,14,13.20
2016,04,02,15,15,13.30
2016,04,02,15,16,13.30
2016,04,02,15,17,13.30
2016,04,02,15,18,13.30
2016,04,02,15,19,13.30
2016,04,02,15,20,13.30
2016,04,02,15,21,13.30
2016,04,02,15,22,13.30
2016,04,02,15,23,13.30
2016,04,02,15,24,13.30
2016,04,02,15,25,13.30
2016,04,02,15,26,13.30
2016,04,02,15,27,13.20
2016,04,02,15,28,13.20
2016,04,02,15,29,13.20
2016,04,02,15,30,13.20
2016,04,02,15,31,13.20
2016,04,02,15,32,13.10
2016,04,02,15,33,13.10
2016,04,02,15,34,13.10
2016,04,02,15,35,13.10
2016,04,02,15,36,13.00
2016,04,02,15,37,13.00
2016,04,02,15,38,13.00
2016,04,02,15,39,13.00
2016,04,02,15,40,12.90
2016,04,02,15,41,12.90
2016,04,02,15,42,12.90
2016,04,02,15,43,12.90
2016,04,02,15,44,12.90
2016,04,02,15,45,12.90
2016,04,02,15,46,13.00
2016,04,02,15,47,13.00
2016,04,02,15,48,13.00
2016,04,02,15,49,13.00
2016,04,02,15,50,13.00
2016,04,02,15,51,13.00
2016,04,02,15,52,13.00
2016,04,02,15,53,13.00
2016,04,02,15,54,13.00
2016,04,02,15,55,13.00
2016,04,02,15,56,13.00
2016,04,02,15,57,13.00
2016,04,02,15,58,13.00
2016,04,02,15,59,13.10
2016,04,02,16,00,13.10
2016,04,02,16,01,13.10
2016,04,02,16,02,13.20
2016,04,02,16,03,13.20
2016,04,02,16,04,13.20
2016,04,02,16,05,13.30
2016,04,02,16,06,13.30
2016,04,02,16,07,13.30
2016,04,02,16,08,13.30
2016,04,02,16,09,13.30
2016,04,02,16,10,13.30
2016,04,02,16,11,13.30
2016,04,02,16,12,13.30
2016,04,02,16,13,13.30
2016,04,02,16,14,13.30
2016,04,02,16,15,13.40
2016,04,02,16,16,13.40
2016,04,02,16,17,13.30
2016,04,02,16,18,13.30
2016,04,02,16,19,13.30
2016,04,02,16,20,13.30
2016,04,02,16,21,13.20
2016,04,02,16,22,13.20
2016,04,02,16,23,13.30
2016,04,02,16,24,13.30
2016,04,02,16,25,13.30
2016,04,02,16,27,13.50
2016,04,02,16,28,13.60
2016,04,02,16,29,13.70
2016,04,02,16,31,13.70
2016,04,02,16,32,13.80
2016,04,02,16,33,13.80
2016,04,02,16,34,13.80
2016,04,02,16,36,13.80
2016,04,02,16,37,13.70
2016,04,02,16,38,13.70
2016,04,02,16,39,13.70
2016,04,02,16,41,13.70
2016,04,02,16,42,13.70
2016,04,02,16,43,13.70
2016,04,02,16,44,13.70
2016,04,02,16,46,13.80
2016,04,02,16,47,13.80
2016,04,02,16,48,13.80
2016,04,02,16,49,13.80
2016,04,02,16,51,13.80
2016,04,02,16,52,13.70
2016,04,02,16,53,13.70
2016,04,02,16,54,13.70
2016,04,02,16,56,13.50
2016,04,02,16,57,13.50
2016,04,02,16,58,13.50
2016,04,02,16,59,13.40
2016,04,02,17,01,13.40
2016,04,02,17,02,13.30
2016,04,02,17,03,13.40
2016,04,02,17,04,13.40
2016,04,02,17,06,13.60
2016,04,02,17,07,13.70
2016,04,02,17,08,13.70
2016,04,02,17,09,13.70
2016,04,02,17,11,13.80
2016,04,02,17,12,13.80
2016,04,02,17,13,13.80
2016,04,02,17,14,13.70
2016,04,02,17,16,13.70
2016,04,02,17,17,13.70
2016,04,02,17,18,13.70
2016,04,02,17,19,13.60
2016,04,02,17,21,13.50
2016,04,02,17,22,13.40
2016,04,02,17,23,13.30
2016,04,02,17,24,13.20
2016,04,02,17,26,13.10
2016,04,02,17,27,13.00
2016,04,02,17,28,12.90
2016,04,02,17,29,12.80
2016,04,02,17,31,12.70
2016,04,02,17,32,12.60
2016,04,02,17,33,12.50
2016,04,02,17,34,12.50
2016,04,02,17,36,12.40
2016,04,02,17,37,12.30
2016,04,02,17,38,12.30
2016,04,02,17,39,12.20
2016,04,02,17,41,12.10
2016,04,02,17,42,12.00
2016,04,02,17,43,12.00
2016,04,02,17,44,11.90
2016,04,02,17,45,11.90
2016,04,02,17,46,11.90
2016,04,02,17,47,11.90
2016,04,02,17,48,11.90
2016,04,02,17,49,11.80
2016,04,02,17,50,11.80
2016,04,02,17,51,11.80
2016,04,02,17,52,11.80
2016,04,02,17,53,11.80
2016,04,02,17,54,11.80
2016,04,02,17,55,11.80
2016,04,02,17,56,11.80
2016,04,02,17,57,11.80
2016,04,02,17,58,11.80
2016,04,02,17,59,11.80
2016,04,02,18,00,11.80
2016,04,02,18,01,11.80
2016,04,02,18,02,11.80
2016,04,02,18,03,11.80
2016,04,02,18,04,11.80
2016,04,02,18,05,11.80
2016,04,02,18,06,11.80
2016,04,02,18,07,11.80
2016,04,02,18,08,11.80
2016,04,02,18,09,11.80
2016,04,02,18,10,11.70
2016,04,02,18,11,11.70
2016,04,02,18,12,11.60
2016,04,02,18,13,11.60
2016,04,02,18,14,11.60
2016,04,02,18,15,11.60
2016,04,02,18,16,11.60
2016,04,02,18,17,11.60
2016,04,02,18,18,11.60
2016,04,02,18,19,11.60
2016,04,02,18,20,11.60
2016,04,02,18,21,11.60
2016,04,02,18,22,11.60
2016,04,02,18,23,11.60
2016,04,02,18,24,11.40
2016,04,02,18,25,11.40
2016,04,02,18,26,11.40
2016,04,02,18,27,11.40
2016,04,02,18,28,11.40
2016,04,02,18,29,11.40
2016,04,02,18,30,11.40
2016,04,02,18,31,11.40
2016,04,02,18,32,11.40
2016,04,02,18,33,11.40
2016,04,02,18,34,11.40
2016,04,02,18,35,11.40
2016,04,02,18,36,11.40
2016,04,02,18,37,11.40
2016,04,02,18,38,11.40
2016,04,02,18,39,11.40
2016,04,02,18,40,11.40
2016,04,02,18,41,11.40
2016,04,02,18,42,11.40
2016,04,02,18,43,11.40
2016,04,02,18,44,11.30
2016,04,02,18,45,11.30
2016,04,02,18,46,11.30
2016,04,02,18,47,11.30
2016,04,02,18,48,11.30
2016,04,02,18,49,11.30
2016,04,02,18,50,11.30
2016,04,02,18,51,11.30
2016,04,02,18,52,11.30
2016,04,02,18,53,11.30
2016,04,02,18,54,11.30
2016,04,02,18,55,11.30
2016,04,02,18,56,11.30
2016,04,02,18,57,11.30
2016,04,02,18,58,11.30
2016,04,02,18,59,11.30
2016,04,02,19,00,11.30
2016,04,02,19,01,11.30
2016,04,02,19,02,11.30
2016,04,02,19,03,11.30
2016,04,02,19,04,11.30
2016,04,02,19,05,11.20
2016,04,02,19,06,11.20
2016,04,02,19,07,11.20
2016,04,02,19,08,11.20
2016,04,02,19,09,11.10
2016,04,02,19,10,11.10
2016,04,02,19,11,11.10
2016,04,02,19,12,11.10
2016,04,02,19,13,11.10
2016,04,02,19,14,11.10
2016,04,02,19,15,11.10
2016,04,02,19,16,11.10
2016,04,02,19,17,11.10
2016,04,02,19,18,11.10
2016,04,02,19,19,11.10
2016,04,02,19,20,10.90
2016,04,02,19,22,10.90
2016,04,02,19,23,10.90